EDDHEDXW

Guest
Details From EDDH - Hamburg
To EDXW - Westerland Sylt
Flight Number -
Tags Generated
Created
Modified
Stats Distance 95 nm / 176 km
Max Altitude 0 ft / 0 m
Waypoints 2
Social Downloads 2
Likes 0
Share VATSIM

Download

Looking for another format? Having issues loading an existing format? Contact us
Advertisement - Login to hide

Notes

Generated

Route

EDDH EDXW

ID Type Via Altitude Latitude Longitude Leg Dist Tot Dist Heading (true) Name
O EDDH APT - 0 ft / 0 m 53.65441˚ 9.97521˚ - 0 nm - -
O EDXW APT - 0 ft / 0 m 54.90942˚ 8.32917˚ 94 nm 94 nm 323° / 322° -

Altitude Profile

Advertisement - Login to hide

EDDH

Details ICAO EDDH (HAM)
Name Hamburg
Region Germany - Civil
Timezone Europe/Berlin (UTC+1.0)
Stats Elevation 53 ft / 16 m (AMSL)
Location 53.633665° 9.985235°
Runways 2
Magnetic Variation 2.785° E

METAR

EDDH 121520Z 26008KT 9999 FEW035 02/01 Q1004 NOSIG

Decode

TAF

TAF EDDH 121100Z 1212/1318 27008KT 7000 BKN007 BECMG 1214/1217 SCT009 BKN020 TEMPO 1217/1302 3500 SNRA BKN004 BECMG 1222/1301 21010KT TEMPO 1302/1305 BKN007 BECMG 1310/1313 OVC005

Decode

Departure Runways

ID Width Length Bearing (true) Bearing (mag) Surface Threshold Offset Overrun Length
05 151 ft / 46 m 10,647 ft / 3,245 m 50.18° 47.40° Asphalt 978 ft / 298 m 194 ft / 59 m
15 151 ft / 46 m 12,013 ft / 3,662 m 152.89° 150.11° Asphalt 0 ft / 0 m 194 ft / 59 m
23 151 ft / 46 m 10,647 ft / 3,245 m 230.22° 227.44° Asphalt 509 ft / 155 m 240 ft / 73 m
33 151 ft / 46 m 12,013 ft / 3,662 m 332.91° 330.13° Asphalt 1,463 ft / 446 m 164 ft / 50 m

EDXW

Details ICAO EDXW (GWT)
Name Westerland Sylt
Region Germany - Civil
Timezone Europe/Berlin (UTC+1.0)
Stats Elevation 51 ft / 16 m (AMSL)
Location 54.912433° 8.341536°
Runways 2
Magnetic Variation 2.241° E

METAR

EDXW 121520Z 30008KT 9999 FEW030 03/00 Q1003

Decode

TAF

Not found

Destination Runways

ID Width Length Bearing (true) Bearing (mag) Surface Threshold Offset Overrun Length
06 148 ft / 45 m 5,551 ft / 1,692 m 59.58° 57.34° Asphalt 0 ft / 0 m 0 ft / 0 m
14 148 ft / 45 m 6,944 ft / 2,117 m 144.52° 142.28° Asphalt 0 ft / 0 m 105 ft / 32 m
24 148 ft / 45 m 5,551 ft / 1,692 m 239.60° 237.36° Asphalt 0 ft / 0 m 0 ft / 0 m
32 148 ft / 45 m 6,944 ft / 2,117 m 324.53° 322.29° Asphalt 0 ft / 0 m 105 ft / 32 m

Approach Navaids

Runway Type Ident Frequency Range Bearing (true) Bearing (mag) Slope Elevation
32 Localiser IWES 111.50 MHz 18 nm / 33 km 324.52° 322.28° - 32 ft / 10 m (AMSL)
32 Glidescope IWES 111.50 MHz 10 nm / 19 km 324.53° 322.29° 3.00° 32 ft / 10 m (AMSL)
32 DME IWES 111.50 MHz 18 nm / 33 km - - - 49 ft / 15 m (AMSL)

Popular Alternatives